Weather Roundup
Issued by NWS

Home | Current Version | Previous Version | Text Only | Print | Product List | Glossary On
Versions: 1 2 3 4 5 6 7 8 9 10 11 12 13 14 15 16 17 18 19 20 21 22 23 24 25 26 27 28 29 30 31 32 33 34 35 36 37 38 39 40 41 42 43 44 45 46 47 48 49 50
000
NZUS93 KARX 231110
HRRWXR

CURRENT HOURLY OBSERVATIONS ACROSS
MUCH OF THE UPPER MISSISSIPPI VALLEY
NATIONAL WEATHER SERVICE LA CROSSE WI
600 AM CDT SAT JUL 23 2016


...SOUTHEAST MINNESOTA...


CITY           SKY/WX    TMP DP  RH WIND       PRES   REMARKS
ROCHESTER      MOCLDY    76  76 100 E6        29.98F FOG
ROCHESTER/MAYO PTSUNNY   76  76 100 SE6       29.97F
WINONA         MOCLDY    72  70  94 CALM      29.97S
AUSTIN         CLOUDY    75  73  94 E3        29.95F FOG
ALBERT LEA     PTCLDY    77  75  94 SE8       29.94F
DODGE CENTER   PTCLDY    75  73  94 SE6       29.97F FOG
PRESTON        CLOUDY    75  73  93 SE3       29.99F FOG
OWATONNA       MOCLDY    77  73  88 E5        29.95F
FARIBAULT      CLOUDY    75  73  94 NE3       29.95F
$$

...ELSEWHERE IN MINNESOTA...


CITY           SKY/WX    TMP DP  RH WIND       PRES   REMARKS
MINNEAPOLIS    CLOUDY    76  67  73 E7        29.95F
INTNL FALLS    CLOUDY    57  56  96 CALM      29.98F
DULUTH         CLOUDY    63  59  87 CALM      30.01S
RED WING       CLOUDY    70  66  88 NE3       29.96S
REDWOOD FALLS  PTCLDY    74  71  91 E10       29.88F
MANKATO        CLOUDY    79  73  83 E8        29.92F
WORTHINGTON    CLOUDY    77  77 100 SE9       29.88F
FAIRMONT       PTCLDY    75  73  94 E8        29.88F
$$

...SOUTHWEST WISCONSIN...


CITY           SKY/WX    TMP DP  RH WIND       PRES   REMARKS
LA CROSSE      CLOUDY    76  74  93 E3        29.96S
PRAIRIE DU CHI CLOUDY    75  73  93 E3        29.96F
BOSCOBEL       FOG       77  76  96 CALM      29.98S VSB<1/4
LONE ROCK      FOG       75  74  96 CALM      29.99S VSB 3/4
PLATTEVILLE    MOCLDY    76  76 100 SE5       30.00F
FORT MC COY    CLEAR     62  62  99 CALM      29.99S
CAMP DOUGLAS   FOG       61  61 100 CALM      29.99S VSB 1/2
MAUSTON-NEW LI CLOUDY    66  66  99 CALM      29.99S FOG
VIROQUA        CLOUDY    74  74 100 S6        30.01S VSB 1/4
WIS DELLS      FOG       72  70  95 CALM      30.00R VSB<1/4
$$

...ELSEWHERE IN WISCONSIN...


CITY           SKY/WX    TMP DP  RH WIND       PRES   REMARKS
MILWAUKEE      PTCLDY    77  73  87 CALM      29.99R
MADISON        FOG       72  72 100 CALM      30.00R VSB 1/2
GREEN BAY      PTCLDY    66  66 100 CALM      29.99R
EAU CLAIRE     FOG       65  65 100 NE5       29.98S VSB 1/4
BLACK RVR FLS    N/A     61  61 100 CALM      29.98S FOG
MEDFORD        PTCLDY    64  64 100 CALM      30.02S
WAUSAU         PTCLDY    65  64  97 CALM      30.00F
WIS RAPIDS     PTCLDY    64  62  93 CALM      30.02R
MARSHFIELD     PTCLDY    69  64  84 CALM      30.01R
RICE LAKE      CLEAR     65  64  96 CALM      30.02S
$$

...NORTHEAST IOWA...


CITY           SKY/WX    TMP DP  RH WIND       PRES   REMARKS
WATERLOO       CLOUDY    77  75  93 E5        29.94S THUNDER
DUBUQUE        CLOUDY    76  75  97 CALM      30.00R
DECORAH        MOCLDY    77  77 100 CALM      29.97F FOG
MASON CITY     PTCLDY    76  75  97 SE6       29.95F
CHARLES CITY     N/A     77  77 100 E7        29.96F
OELWEIN          N/A     75  75 100 SE5       29.97F
$$

...ELSEWHERE IN IOWA...


CITY           SKY/WX    TMP DP  RH WIND       PRES   REMARKS
DES MOINES     CLOUDY    79  76  90 S5        29.91S
IOWA CITY      MOCLDY    76  75  97 VRB3      29.97S
FORT DODGE     CLOUDY    77  75  94 E7        29.91F
MARSHALLTOWN   MOCLDY    77  76  96 NE5       29.92S
CEDAR RAPIDS   CLOUDY    76  76 100 E6        29.95F
$$

...NORTHERN ILLINOIS...


CITY           SKY/WX    TMP DP  RH WIND       PRES   REMARKS
CHICAGO-OHARE  MOCLDY    78  75  90 W5        29.98R
CHICAGO-MIDWAY PTCLDY    80  75  84 W3        29.98R
MOLINE         CLEAR     75  73  93 E5        29.96F
ROCKFORD       PTCLDY    75  72  90 CALM      30.01R FOG
PEORIA         CLEAR     75  74  96 CALM      29.99R
$$

NOTE: "FAIR" INDICATES FEW OR NO CLOUDS BELOW 12,000 FEET WITH NO
SIGNIFICANT WEATHER AND/OR OBSTRUCTIONS TO VISIBILITY. WIND
SPEEDS ARE IN MILES-PER-HOUR.




USA.gov is the U.S. government's official web portal to all federal, state and local government web resources and services.